Regional Weather Roundup
Issued by NWS

Home | Current Version | Previous Version | Graphics & Text | Print | Product List | Glossary On
Versions: 1 2 3 4 5 6 7 8 9 10 11 12 13 14 15 16 17 18 19 20 21 22 23 24 25 26 27 28 29 30 31 32 33 34 35 36 37 38 39 40 41 42 43 44 45 46 47 48 49 50
000
ASUS43 KMPX 282110
RWRMN
WEATHER ROUNDUP FOR MINNESOTA
NATIONAL WEATHER SERVICE TWIN CITIES/CHANHASSEN MN
400 PM CDT THU MAY 28 2015


NOTE: "FAIR" INDICATES FEW OR NO CLOUDS BELOW 12,000 FEET WITH NO
SIGNIFICANT WEATHER AND/OR OBSTRUCTIONS TO VISIBILITY. N/A MEANS
CURRENT SKY AND/OR WEATHER CONDITIONS ARE NOT AVAILABLE.

MNZ060>063-068>070-282200-
   Twin Cities Metro

CITY           SKY/WX    TMP DP  RH WIND       PRES   REMARKS
TWIN CITIES    MOSUNNY   83  53  35 S15G26    29.99F
ST PAUL        MOSUNNY   82  55  39 S14G28    29.99F
CRYSTAL        MOSUNNY   84  54  35 S18G24    29.96F
BLAINE         MOSUNNY   84  54  34 S15G23    29.98F
LAKEVILLE      MOSUNNY   81  52  36 S10G22    30.00F
EDEN PRAIRIE   PTSUNNY   82  54  37 S18G26    29.97F
SOUTH ST PAUL  MOSUNNY   82  51  33 S16G26    29.99F
LAKE ELMO      PTSUNNY   81  55  41 S16G28    30.01F
$$
MNZ001>005-007-008-013>017-022>024-027-028-282200-
   Northwest Minnesota

CITY           SKY/WX    TMP DP  RH WIND       PRES   REMARKS
BEMIDJI        MOSUNNY   80  53  39 SW21G29   29.85F
HALLOCK        PTSUNNY   72  63  73 CALM      29.80F
ROSEAU         PTSUNNY   72  63  73 SW9       29.84F
WARROAD        MOSUNNY   64  61  88 NE7       29.85F
THIEF RVR FALL PTSUNNY   75  63  64 SW6       29.80F
CROOKSTON      MOSUNNY   79  64  61 W9        29.77F THUNDER
FOSSTON        MOSUNNY   79  57  47 S23G30    29.82F
DETROIT LAKES  SUNNY     79  55  44 S17       29.88F
MOORHEAD       MOSUNNY   82  57  42 S20       29.81F
PARK RAPIDS    MOSUNNY   83  51  33 S22G32    29.89F
MAHNOMEN       MOCLDY    79  58  47 S25G33    29.83F
$$
MNZ006-009>011-018-025>026-282200-
   North Central Minnesota

CITY           SKY/WX    TMP DP  RH WIND       PRES   REMARKS
BAUDETTE       CLOUDY    61  57  87 SE8       29.87F
FLAG ISLAND    CLOUDY    59  55  88 S14       29.85F
INTL FALLS     CLOUDY    63  55  75 E7        29.88F
WASKISH        TSTM      68  61  77 CALM      29.86F
BIG FORK       PTSUNNY  N/A N/A N/A S20G25    29.86F
LONGVILLE      MOSUNNY   82  46  28 S18G28    29.90F
GRAND RAPIDS   MOSUNNY   81  52  36 S16G26    29.91F
CRANE LAKE     MOSUNNY   75  52  43 S8        29.90F
ORR            PTSUNNY   77  52  41 S10G18    29.86F
COOK           MOSUNNY   79  54  41 S10G25    29.90F
WALKER         FAIR      79  48  32 S18G32    29.87F
$$
MNZ012-019>021-037-282200-
   Northeast Minnesota

CITY           SKY/WX    TMP DP  RH WIND       PRES   REMARKS
DULUTH         PTSUNNY   49  44  83 SE15      30.01F
HIBBING        MOSUNNY   76  53  44 S10G20    29.94F
EVELETH        MOSUNNY   73  54  49 S13       29.96F
DULUTH HARBOR  CLOUDY    45  43  93 E15       30.05F
TWO HARBORS    MOSUNNY   57  48  72 E9        30.01S
SILVER BAY     MOSUNNY   55  46  71 NE12      30.02S
GRAND MARAIS     N/A     47  42  83 NE12      30.05F
G MARAIS ARPRT MOSUNNY   59  46  63 SE3       30.05S
$$
MNZ029>031-032-039>041-046>048-054>057-064-282200-
   West Central Minnesota

CITY           SKY/WX    TMP DP  RH WIND       PRES   REMARKS
FERGUS FALLS   MOSUNNY   82  55  39 S22G28    29.86F
WHEATON        MOSUNNY   81  55  41 S21G32    29.86F
MORRIS         MOSUNNY   84  52  32 S22G28    29.87F
ALEXANDRIA     MOSUNNY   81  54  39 S18       29.93F
ELBOW LAKE     FAIR      80  56  43 S29       29.88F
WADENA         MOSUNNY   81  48  32 S18G26    29.90F
GLENWOOD       PTSUNNY   82  48  30 S25       29.93F
APPLETON       PTSUNNY   84  46  26 S15G24    29.88F
BENSON         PTSUNNY   82  46  28 S18G25    29.89F
ORTONVILLE     MOSUNNY   82  55  39 S14G26    29.86F
MADISON        MOSUNNY   84  46  26 S23G29    29.88F
WILLMAR          N/A     84  48  28 S9G23     29.94F
$$
MNZ033>034-036-042>043-049>051-058-059-282200-
   Central Minnesota

CITY           SKY/WX    TMP DP  RH WIND       PRES   REMARKS
ST CLOUD       CLOUDY    80  53  39 S18G25    29.94F
SAUK CENTRE    FAIR      81  49  32 S23G29    29.93F
PAYNESVILLE    CLOUDY    77  49  38 SE12G20   29.95F
AITKIN         PTSUNNY   82  52  34 S10G22    29.92F
PINE RIVER     MOSUNNY   81  54  39 S15G26    29.94F
BRAINERD       MOSUNNY   82  51  34 SW17G33   29.93F
STAPLES        MOSUNNY   81  52  36 S16G25    29.91F
LONG PRAIRIE   FAIR      79  52  38 S16G23    29.93F
LITTLE FALLS   CLOUDY    79  46  31 S12G23    29.94S
LITCHFIELD     PTSUNNY   82  50  32 SE6       29.95F
BUFFALO        PTSUNNY   83  51  32 S15G23    29.97F
MAPLE LAKE     PTSUNNY   84  55  36 S16G22    29.97F
$$
MNZ037-044-045-052-053-282200-
   East Central Minnesota

CITY           SKY/WX    TMP DP  RH WIND       PRES   REMARKS
PRINCETON      PTSUNNY   82  54  36 S10G25    29.96F
MORA           PTSUNNY   79  48  34 S15G22    29.98F
CAMBRIDGE      PTSUNNY   82  61  47 S15       29.95F
RUSH CITY      PTSUNNY   82  53  37 S12G17    29.98S
MOOSE LAKE     MOSUNNY   81  50  34 S13G22    29.94F
HINCKLEY       FAIR      81  54  39 S15G25    29.97F
CLOQUET        MOSUNNY   57  46  67 E8        30.00F
MCGREGOR       PTSUNNY   79  50  36 S15G29    29.95F
$$
MNZ071>073-080-081-089-090-097-098-282200-
   Southwest Minnesota

CITY           SKY/WX    TMP DP  RH WIND       PRES   REMARKS
MONTEVIDEO     PTSUNNY   84  48  28 SW18G25   29.90F
GRANITE FALLS  PTSUNNY   85  46  25 S24G30    29.92F
CANBY          MOSUNNY   83  49  30 S15G23    29.90F
MARSHALL       MOSUNNY   84  45  24 SW22G30   29.91F
REDWOOD FALLS  MOSUNNY   84  49  29 S23G30    29.93F
OLIVIA         PTSUNNY   79  45  29 S18G26    29.93F
PIPESTONE      SUNNY     82  48  30 S23       29.94F
WINDOM         MOSUNNY   81  50  34 S17G23    29.98S
WORTHINGTON    PTSUNNY   81  50  34 S22G28    29.96F
JACKSON        PTSUNNY   81  50  34 S16G25    30.00F
TRACY          MOSUNNY   84  47  27 S17G28    29.94F
SLAYTON        MOSUNNY   83  44  25 S22G30    29.95F
$$
MNZ065>067-074>077-082>085-091>093-282200-
   South Central Minnesota

CITY           SKY/WX    TMP DP  RH WIND       PRES   REMARKS
MANKATO        PTSUNNY   82  52  34 S12G24    29.99F
NEW ULM        SUNNY     82  50  32 S21       29.96F
FAIRMONT       PTSUNNY   81  50  34 S21G30    29.99F
GLENCOE        MOSUNNY   85  55  34 S15G21    29.96F
FARIBAULT      MOSUNNY   81  50  34 S17G23    30.02F
OWATONNA       MOSUNNY   81  48  32 S16G24    30.02F
WASECA         MOSUNNY   79  46  31 S17G24    30.03F
ALBERT LEA     PTSUNNY   81  50  34 S16G22    30.02F
$$
MNZ078>079-086>088-094>096-282200-
   Southeast Minnesota

CITY           SKY/WX    TMP DP  RH WIND       PRES   REMARKS
ROCHESTER      MOSUNNY   80  55  42 S20G26    30.06F
RED WING       MOSUNNY   84  50  30 S16G24    30.01F
STANTON        MOSUNNY   83  46  27 S17G25    30.00F
DODGE CENTER   MOSUNNY   81  50  34 S16       30.05F
WINONA         PTSUNNY   79  55  44 S6        30.05F
AUSTIN         MOSUNNY   79  54  41 S15       30.04F
PRESTON        MOSUNNY   79  52  38 S20       30.07F
$$
ABBREVIATIONS USED IN REMARKS
   TC - TEMPERATURES IN CELSIUS
  WCI - WIND CHILL INDEX
   HX - HEAT INDEX
  VSB - VISIBILITY
$$



USA.gov is the U.S. government's official web portal to all federal, state and local government web resources and services.